[[{"header":{"parameterUnit":"m.s-1","parameterCategory":1,"la1":30.2991,"la2":30.254,"lo1":-89.0895,"lo2":-89.0444,"dy":0.0017,"dx":0.0017,"nx":28,"ny":28,"refTime":"2025-07-22T09:00:00:Z","depth":0,"parameterNumber":2,"parameterNumberName":"U-component_of_WINDS"},"data":[0,0,0,0,0,0,0,0,0,0,0,0,0,0,0,0,0,0,0,0,0,0,0,0,0,0,0,0,0,0,0,0,0,0,0,0,0,0,0,0,0,0,0,0,0,0,0,0,0,0,0,0,0,0,0,0,0,0,0.8727,0.8725,0,0.8568,0.8566,0.8564,0.8472,0.8471,0.8471,0.8471,0.8305,0.8301,0.8297,0,0,0,0,0,0,0,0,0,0,0,0,0,0.8947,0.8943,0.8727,0.8725,0.8723,0.8568,0.8566,0.8564,0.8472,0.8471,0.8471,0.847,0.8307,0.8302,0.8297,0,0,0,0,0,0,0,0,0,0,0,0,0,0.8826,0.8942,0.8727,0.8658,0.8651,0.8569,0.8566,0.8563,0.8472,0.8471,0.8471,0.847,0.8308,0.8302,0.8296,0.827,0,0,0.8278,0.8275,0,0,0,0,0,0,0,0,0.8833,0.8818,0.867,0.8663,0.8654,0.8539,0.8583,0.8465,0.8472,0.854,0.8471,0.847,0.8383,0.8371,0.8342,0.8262,0.8255,0.8277,0.8274,0.8271,0.8269,0,0,0,0,0,0,0,0.8841,0.8824,0.8664,0.8668,0.8658,0.8634,0.8616,0.856,0.8466,0.8534,0.8527,0.8509,0.8379,0.8349,0.8338,0.8253,0.8277,0.8272,0.8268,0.8266,0.8141,0.8141,0,0,0,0,0,0,0.8861,0.8832,0.8669,0.8659,0.8744,0.8631,0.8611,0.8577,0.8467,0.845,0.851,0.8505,0.8359,0.8345,0.8332,0.8292,0.8271,0.8265,0.8262,0.8141,0.8141,0.8141,0,0,0,0,0,0,0.8866,0.8848,0.8675,0.8743,0.872,0.8628,0.859,0.8574,0.8543,0.8449,0.8431,0.8496,0.8358,0.834,0.8286,0.8285,0.8263,0.8257,0.814,0.8141,0.8141,0.8214,0,0,0,0,0,0,0.8873,0.885,0.884,0.8744,0.8717,0.8633,0.859,0.8571,0.8533,0.8526,0.8432,0.8415,0.8356,0.8295,0.828,0.8276,0.8252,0.814,0.814,0.8141,0.8211,0.8217,0.8222,0,0,0,0,0,0.8881,0.8866,0.884,0.8821,0.8702,0.8634,0.8618,0.8551,0.8534,0.8522,0.8461,0.8418,0.8288,0.8291,0.8272,0.8267,0.814,0.814,0.8141,0.8209,0.8216,0.8222,0,0,0,0,0,0,0.8964,0.8853,0.8822,0.8776,0.8715,0.8618,0.8601,0.8561,0.8502,0.8498,0.8417,0.8396,0.8349,0.8303,0.8307,0.8235,0.8209,0.8206,0.8267,0.8273,0.8278,0.8289,0.8247,0,0,0,0,0,0.8977,0.8932,0.8836,0.8805,0.8776,0.8694,0.8662,0.8616,0.8549,0.8522,0.8457,0.8394,0.8338,0.8303,0.8247,0.8204,0.8181,0.8192,0.8197,0.8202,0.82,0.8172,0.8175,0.8144,0.8144,0.8144,0,0,0.9003,0.8937,0.8913,0.882,0.8767,0.8721,0.8673,0.8626,0.859,0.8515,0.8459,0.841,0.8333,0.8284,0.8259,0.8244,0.8203,0.8203,0.8207,0.8202,0.8173,0.8176,0.8179,0.8144,0.8144,0.8144,0,0,0.9026,0.8973,0.894,0.8888,0.8809,0.8754,0.8747,0.8656,0.862,0.8563,0.8505,0.8461,0.8367,0.8314,0.8275,0.8279,0.8236,0.8263,0.8289,0.8264,0.8266,0.8268,0.8267,0.8268,0.8261,0.8261,0.8261,0,0.9068,0.8997,0.8928,0.8884,0.8844,0.8774,0.8739,0.8692,0.8599,0.8572,0.8557,0.8437,0.838,0.8317,0.8318,0.829,0.8277,0.8272,0.8272,0.8273,0.8273,0.8272,0.8272,0.8265,0.8264,0.8264,0.8264,0,0.9052,0.9003,0.8986,0.8898,0.8856,0.8817,0.8741,0.8707,0.8664,0.8611,0.8553,0.8483,0.8411,0.8393,0.8351,0.8323,0.8316,0.8287,0.8259,0.8281,0.8278,0.8277,0.827,0.8269,0.8268,0.8267,0,0,0.9122,0.8996,0.8991,0.8949,0.8857,0.8817,0.8775,0.8705,0.8676,0.8614,0.8575,0.8498,0.847,0.8426,0.8377,0.8355,0.836,0.8328,0.8325,0.8335,0.8323,0.8344,0.8345,0.8332,0.8331,0.8331,0.8329,0,0.913,0.9051,0.8987,0.8931,0.8885,0.8818,0.878,0.8719,0.8668,0.862,0.8564,0.8509,0.8478,0.8451,0.8426,0.8365,0.8356,0.8364,0.8293,0.8291,0.8313,0.8343,0.8366,0.8367,0.8327,0.8327,0.8327,0,0.913,0.9071,0.9011,0.8922,0.89,0.8867,0.8797,0.8753,0.8681,0.8646,0.8597,0.8546,0.8497,0.8475,0.8405,0.8412,0.8379,0.8344,0.8343,0.8332,0.8309,0.8332,0.8366,0.8366,0.8325,0.8325,0.8325,0,0.9185,0.909,0.9041,0.9008,0.8904,0.8883,0.8838,0.8767,0.8728,0.8667,0.8641,0.8575,0.8538,0.8487,0.8419,0.841,0.8356,0.8329,0.8323,0.8325,0.8313,0.8315,0.8341,0.8296,0.8296,0.8296,0.8296,0,0.92,0.9165,0.9065,0.9035,0.8993,0.892,0.888,0.883,0.8767,0.8724,0.8663,0.8625,0.8539,0.8489,0.8436,0.8385,0.8369,0.8338,0.8324,0.8343,0.8346,0.8319,0.8316,0.8296,0.8296,0.8296,0.8296,0,0.9254,0.9186,0.9128,0.9034,0.901,0.8983,0.8902,0.887,0.8816,0.8763,0.8747,0.8662,0.8601,0.8529,0.8444,0.8408,0.8361,0.8341,0.8385,0.8377,0.8375,0.8376,0.8383,0.8379,0.8339,0.8339,0.834,0,0.9268,0.9239,0.9143,0.9111,0.9068,0.9017,0.8978,0.8904,0.8865,0.8781,0.8759,0.8693,0.8636,0.8542,0.8472,0.8406,0.8383,0.839,0.8373,0.8392,0.8381,0.8383,0.8379,0.8395,0.8396,0.8396,0.8397,0,0.9298,0.9266,0.9212,0.9146,0.91,0.9045,0.8986,0.8963,0.8877,0.8837,0.8774,0.873,0.8644,0.8578,0.8504,0.8457,0.8412,0.8403,0.8398,0.8416,0.8442,0.8426,0.8396,0.8403,0.8402,0.8402,0.8401,0.8401,0.9331,0.9302,0.9229,0.9171,0.9119,0.9066,0.9031,0.8973,0.8919,0.8843,0.8803,0.8741,0.8668,0.8564,0.8519,0.8468,0.8452,0.8446,0.8443,0.8442,0.8447,0.8452,0.8454,0.8454,0.8454,0.8453,0.8453,0,0.9356,0.9307,0.9254,0.9174,0.9128,0.9091,0.9024,0.8987,0.8933,0.8871,0.8816,0.8743,0.868,0.8605,0.8537,0.851,0.8488,0.8494,0.8495,0.8484,0.8466,0.8476,0.8514,0.8514,0.8514,0.8514,0.8514,0.8514,0.9364,0.9313,0.9272,0.9194,0.9144,0.9083,0.9048,0.8997,0.8947,0.8868,0.8816,0.8768,0.8699,0.8625,0.8565,0.8544,0.8521,0.8534,0.8507,0.8491,0.8486,0.8481,0.849,0.853,0.853,0.8529,0.8529,0.8529]},{"header":{"parameterUnit":"m.s-1","parameterCategory":1,"la1":30.2991,"la2":30.254,"lo1":-89.0895,"lo2":-89.0444,"dy":0.0017,"dx":0.0017,"nx":28,"ny":28,"refTime":"2025-07-22T09:00:00:Z","depth":0,"parameterNumber":3,"parameterNumberName":"V-component_of_WINDS"},"data":[0,0,0,0,0,0,0,0,0,0,0,0,0,0,0,0,0,0,0,0,0,0,0,0,0,0,0,0,0,0,0,0,0,0,0,0,0,0,0,0,0,0,0,0,0,0,0,0,0,0,0,0,0,0,0,0,0,0,-3.4591,-3.4593,0,-3.4802,-3.4804,-3.4807,-3.4863,-3.4862,-3.4861,-3.486,-3.5071,-3.5078,-3.5085,0,0,0,0,0,0,0,0,0,0,0,0,0,-3.4233,-3.4239,-3.459,-3.4593,-3.4596,-3.4802,-3.4804,-3.4807,-3.4863,-3.4862,-3.486,-3.4859,-3.5069,-3.5077,-3.5085,0,0,0,0,0,0,0,0,0,0,0,0,0,-3.441,-3.4241,-3.459,-3.4649,-3.4656,-3.4801,-3.4805,-3.4808,-3.4864,-3.4862,-3.486,-3.4858,-3.5067,-3.5076,-3.5087,-3.5187,0,0,-3.5118,-3.5122,0,0,0,0,0,0,0,0,-3.44,-3.4423,-3.4637,-3.4645,-3.4653,-3.4804,-3.4756,-3.4935,-3.4864,-3.4785,-3.486,-3.4857,-3.4984,-3.5001,-3.5044,-3.5197,-3.5206,-3.5119,-3.5125,-3.5129,-3.5132,0,0,0,0,0,0,0,-3.4388,-3.4414,-3.4674,-3.464,-3.465,-3.4664,-3.4687,-3.479,-3.4892,-3.4792,-3.4796,-3.4821,-3.4988,-3.5034,-3.505,-3.5209,-3.5118,-3.5127,-3.5134,-3.5138,-3.5455,-3.5458,0,0,0,0,0,0,-3.4366,-3.4404,-3.4667,-3.468,-3.452,-3.4671,-3.4697,-3.4758,-3.4891,-3.491,-3.4822,-3.4822,-3.5018,-3.5038,-3.5057,-3.5184,-3.5129,-3.5139,-3.5145,-3.5453,-3.5456,-3.5458,0,0,0,0,0,0,-3.4358,-3.4389,-3.4659,-3.4544,-3.4579,-3.468,-3.4747,-3.4763,-3.481,-3.4914,-3.4932,-3.4851,-3.5017,-3.5043,-3.5155,-3.5192,-3.5143,-3.5153,-3.545,-3.5454,-3.5457,-3.5437,0,0,0,0,0,0,-3.4347,-3.4386,-3.4425,-3.4544,-3.4585,-3.4753,-3.4749,-3.4768,-3.4827,-3.483,-3.4946,-3.4964,-3.5018,-3.5139,-3.5165,-3.5205,-3.5161,-3.5447,-3.5452,-3.5456,-3.5435,-3.544,-3.5444,0,0,0,0,0,-3.4334,-3.441,-3.4427,-3.4458,-3.4637,-3.4755,-3.4779,-3.4841,-3.483,-3.4871,-3.4938,-3.496,-3.5184,-3.515,-3.518,-3.5223,-3.5445,-3.5451,-3.5456,-3.5433,-3.5439,-3.5443,0,0,0,0,0,0,-3.429,-3.4426,-3.4447,-3.4563,-3.4648,-3.4765,-3.4817,-3.4844,-3.4932,-3.4931,-3.5003,-3.5029,-3.5135,-3.5191,-3.5151,-3.5328,-3.5315,-3.5326,-3.5288,-3.5294,-3.5298,-3.5282,-3.5169,0,0,0,0,0,-3.4295,-3.4381,-3.4495,-3.4586,-3.4628,-3.4715,-3.4769,-3.481,-3.49,-3.4935,-3.5011,-3.5096,-3.5186,-3.5243,-3.5332,-3.5444,-3.547,-3.5489,-3.5493,-3.5496,-3.5504,-3.5568,-3.5578,-3.5476,-3.5476,-3.5475,0,0,-3.4303,-3.4388,-3.4438,-3.458,-3.465,-3.4737,-3.4745,-3.4836,-3.4901,-3.4949,-3.5059,-3.5118,-3.5218,-3.533,-3.5384,-3.538,-3.5539,-3.5503,-3.5504,-3.5511,-3.5575,-3.5584,-3.5593,-3.5479,-3.5479,-3.5478,0,0,-3.4364,-3.4437,-3.4522,-3.4593,-3.47,-3.4758,-3.4778,-3.4892,-3.4934,-3.5046,-3.5084,-3.5162,-3.5315,-3.5385,-3.5441,-3.553,-3.5553,-3.5557,-3.5579,-3.564,-3.5648,-3.5656,-3.5687,-3.5698,-3.5565,-3.5565,-3.5565,0,-3.436,-3.4494,-3.4561,-3.4652,-3.4713,-3.4763,-3.4849,-3.4914,-3.5043,-3.5084,-3.5079,-3.5273,-3.5344,-3.5474,-3.5496,-3.5539,-3.5564,-3.5543,-3.5642,-3.565,-3.5658,-3.5689,-3.57,-3.5565,-3.5565,-3.5565,-3.5565,0,-3.4485,-3.4577,-3.4632,-3.4758,-3.4826,-3.4913,-3.4994,-3.5054,-3.509,-3.5148,-3.5262,-3.535,-3.5457,-3.5491,-3.5526,-3.5627,-3.5621,-3.5628,-3.5616,-3.5666,-3.5696,-3.5709,-3.5565,-3.5565,-3.5565,-3.5565,0,0,-3.452,-3.4685,-3.4704,-3.4762,-3.4885,-3.4957,-3.5047,-3.5154,-3.5204,-3.5293,-3.537,-3.55,-3.5508,-3.557,-3.5614,-3.5668,-3.5733,-3.5669,-3.5672,-3.5677,-3.5849,-3.5842,-3.5855,-3.5751,-3.5753,-3.5755,-3.5841,0,-3.4595,-3.4759,-3.4824,-3.4956,-3.5042,-3.5092,-3.5171,-3.5254,-3.5312,-3.5393,-3.5456,-3.5547,-3.5551,-3.5589,-3.5645,-3.5713,-3.5769,-3.5708,-3.5821,-3.5824,-3.5793,-3.5871,-3.5863,-3.594,-3.5853,-3.5855,-3.5857,0,-3.4703,-3.4795,-3.4937,-3.5051,-3.509,-3.5159,-3.5263,-3.534,-3.5436,-3.5474,-3.5546,-3.5587,-3.5682,-3.5666,-3.5799,-3.5756,-3.5807,-3.5847,-3.5852,-3.5863,-3.5842,-3.5883,-3.5966,-3.5976,-3.5876,-3.5874,-3.5873,0,-3.4714,-3.4873,-3.4979,-3.5027,-3.5163,-3.5211,-3.527,-3.5364,-3.5425,-3.5515,-3.5555,-3.5655,-3.571,-3.5786,-3.5852,-3.5834,-3.5979,-3.5968,-3.6012,-3.601,-3.6038,-3.6035,-3.6129,-3.6073,-3.6073,-3.6073,-3.6073,0,-3.479,-3.4874,-3.4986,-3.505,-3.5147,-3.5221,-3.5314,-3.5376,-3.546,-3.5537,-3.5587,-3.5658,-3.5742,-3.5824,-3.5877,-3.5979,-3.6003,-3.6036,-3.6048,-3.6031,-3.6026,-3.6063,-3.6059,-3.6076,-3.6075,-3.6075,-3.6074,0,-3.4817,-3.4895,-3.5014,-3.5134,-3.5166,-3.5232,-3.5334,-3.5399,-3.546,-3.5557,-3.5584,-3.5679,-3.5779,-3.5854,-3.5981,-3.6017,-3.6125,-3.6139,-3.6093,-3.6099,-3.6139,-3.6134,-3.6258,-3.6278,-3.6209,-3.621,-3.6211,0,-3.4859,-3.4926,-3.5054,-3.5111,-3.5169,-3.5259,-3.5322,-3.5398,-3.5461,-3.5577,-3.5627,-3.573,-3.5817,-3.5973,-3.6053,-3.6151,-3.6167,-3.6204,-3.6182,-3.6162,-3.6167,-3.6161,-3.6168,-3.6206,-3.6207,-3.6207,-3.6207,0,-3.4926,-3.4962,-3.5052,-3.5156,-3.523,-3.5315,-3.54,-3.5443,-3.5534,-3.5603,-3.5706,-3.5773,-3.5906,-3.6007,-3.6114,-3.6174,-3.6205,-3.6214,-3.623,-3.6211,-3.6181,-3.6197,-3.6099,-3.621,-3.621,-3.621,-3.621,-3.6209,-3.4962,-3.5024,-3.5124,-3.5222,-3.5296,-3.5375,-3.5442,-3.5513,-3.5601,-3.5715,-3.5755,-3.5861,-3.5957,-3.6104,-3.6165,-3.6249,-3.6249,-3.6271,-3.6277,-3.628,-3.6279,-3.6169,-3.6269,-3.6269,-3.6269,-3.6269,-3.6269,0,-3.503,-3.5098,-3.5188,-3.5308,-3.5385,-3.5411,-3.5508,-3.557,-3.5664,-3.5751,-3.5837,-3.5955,-3.6055,-3.6144,-3.6247,-3.6297,-3.6314,-3.6321,-3.6317,-3.6331,-3.6273,-3.6249,-3.6306,-3.6306,-3.6306,-3.6306,-3.6306,-3.6306,-3.5075,-3.5181,-3.5229,-3.5372,-3.544,-3.5546,-3.5599,-3.5672,-3.5743,-3.5874,-3.5957,-3.6016,-3.6104,-3.6214,-3.6307,-3.633,-3.6365,-3.6369,-3.6395,-3.6339,-3.6335,-3.633,-3.6308,-3.6376,-3.6376,-3.6446,-3.6447,-3.6447]}]]